Theta_e
351 354 358 359 358 358 358 357 357 357 356 355 355 354 354 355 354 354 354 354 353 353 353 352 352 353 353 354 354 354 354 354 354 354 354 354 353 351 351 351 351 352 352 351 349 348 351 352 351 351 351 350 350 349 349 348 346 346 346 346 345 343 343 342 341 341 342 341 340 339 339 339 339 339 338 340 340 341 342 343 343 340 341 342 344
350 355 357 358 358 358 358 357 356 356 355 355 354 354 354 354 354 354 354 354 352 352 352 352 353 353 353 353 353 354 354 354 354 354 354 355 355 353 352 353 354 354 351 349 348 349 348 350 350 350 350 349 350 348 348 348 347 347 346 345 343 342 343 343 342 343 342 342 342 340 339 339 338 338 340 341 340 343 343 343 344 339 340 344 346
353 355 357 358 358 357 357 356 356 356 355 353 354 354 354 354 354 354 354 353 353 352 352 352 353 353 353 353 353 354 354 354 354 354 355 354 355 355 355 355 354 354 352 349 348 347 347 347 347 348 348 349 349 349 348 347 347 346 346 345 343 343 344 344 343 343 343 343 341 340 339 339 338 338 338 339 339 343 344 344 343 344 340 343 342
352 354 357 357 358 357 356 356 356 355 354 354 354 355 354 354 355 354 353 353 353 353 352 353 353 353 353 352 353 353 354 353 353 354 354 355 355 356 355 354 353 352 351 349 348 347 347 347 347 347 347 347 348 348 348 348 347 346 345 345 344 343 344 343 342 341 342 342 341 340 338 333 335 338 338 337 338 343 344 344 344 343 343 343 344
352 354 356 356 355 356 356 356 356 355 355 355 354 353 355 355 355 354 354 353 353 353 353 353 353 353 353 352 353 352 353 353 354 354 354 354 354 353 351 352 351 350 350 350 349 349 347 347 346 346 346 347 347 348 348 347 346 345 345 345 344 343 343 343 343 346 344 341 340 337 332 331 331 337 337 337 337 342 342 341 342 342 343 343 343
352 354 354 354 354 355 356 356 355 355 355 355 355 355 355 355 355 354 354 354 354 354 353 353 353 353 353 353 352 353 353 353 353 353 354 353 352 352 351 350 350 349 349 349 349 348 348 347 347 347 347 347 347 348 347 346 346 345 345 345 344 344 344 344 343 344 344 341 339 334 333 333 333 334 338 337 338 337 336 339 339 343 343 343 343
353 353 353 353 353 355 355 355 355 355 354 354 355 355 355 355 355 355 354 354 354 353 353 353 352 352 353 353 352 352 352 352 353 353 353 353 352 351 351 350 349 348 348 349 349 348 347 347 347 346 346 347 347 347 346 346 345 345 344 344 344 344 344 344 343 343 345 343 333 331 331 331 332 334 338 337 337 336 336 336 344 343 343 342 342
353 353 353 353 353 355 355 354 355 355 355 355 354 355 355 355 355 355 355 354 354 353 353 352 352 352 352 352 352 351 351 352 352 352 353 353 352 351 350 349 348 348 348 348 348 348 348 347 347 346 346 346 346 346 345 345 345 345 345 344 345 345 346 345 344 345 344 336 332 334 334 334 333 332 337 338 336 337 336 341 342 342 341 341 343
351 352 353 353 354 355 354 354 354 355 355 354 355 355 355 355 355 355 354 354 353 353 352 352 352 352 352 352 352 352 352 353 353 353 352 352 351 351 351 352 351 351 350 349 348 347 348 347 345 345 345 346 346 346 346 346 346 346 346 346 346 346 346 346 347 347 344 335 334 334 334 333 332 331 335 337 337 337 338 338 340 340 341 340 341
350 352 353 353 353 355 354 354 354 355 355 356 355 354 355 355 355 355 354 353 353 353 352 352 352 352 351 352 352 352 352 352 351 350 350 350 351 350 350 349 348 347 348 348 347 347 348 346 345 345 346 345 346 346 346 345 346 346 346 347 346 346 346 347 343 341 333 332 334 335 336 338 332 333 336 336 336 336 336 336 339 339 340 341 340
349 351 352 353 353 354 353 354 354 355 354 355 355 355 355 355 355 354 354 353 352 352 352 352 352 351 351 351 351 351 352 351 351 351 350 350 350 350 349 349 348 348 348 347 347 347 347 345 344 345 346 346 346 345 345 346 346 346 346 346 346 347 348 346 339 332 333 335 335 335 337 339 331 331 337 337 336 336 336 337 338 338 338 338 340
348 351 352 353 356 354 354 353 354 354 355 355 355 355 355 355 354 354 353 352 352 352 352 352 351 351 350 350 350 350 351 351 351 351 350 349 349 349 348 348 348 347 348 347 348 348 347 345 345 346 346 346 345 345 345 346 345 345 346 346 346 347 348 345 335 333 334 335 335 335 334 333 330 333 337 337 338 335 335 335 335 335 334 334 337
348 350 352 352 353 354 353 353 354 355 355 355 355 355 354 353 354 353 353 352 352 351 351 351 351 350 350 350 349 351 351 351 351 351 351 350 349 349 348 348 347 347 347 347 348 348 347 346 346 346 346 345 345 345 345 345 345 345 346 346 346 347 347 343 333 333 333 333 334 334 333 332 331 336 336 337 337 337 336 336 336 335 335 335 334
347 349 350 352 352 355 352 353 353 355 354 354 354 354 354 354 354 353 352 352 352 352 351 351 351 351 350 350 350 351 351 350 350 350 350 350 349 349 348 348 348 348 347 348 349 348 347 346 345 345 345 344 345 345 344 345 345 345 345 345 346 346 346 340 337 333 333 332 334 333 332 334 334 338 338 338 338 337 337 336 335 336 336 336 335
347 348 350 351 352 352 355 353 353 353 353 353 353 353 353 352 352 352 352 352 351 351 351 351 351 351 350 350 350 350 350 350 349 349 350 349 349 348 348 348 348 348 348 348 348 347 346 345 345 344 344 344 343 343 343 344 344 344 344 344 345 347 347 339 334 333 333 334 335 335 333 335 340 339 337 337 336 336 335 335 334 335 335 334 334
348 349 350 350 351 352 352 355 353 353 352 353 353 352 352 352 351 351 351 351 351 351 351 351 352 351 350 350 350 350 349 349 349 348 349 348 348 348 348 348 348 348 347 347 347 346 345 345 344 344 344 343 342 343 342 343 343 343 343 344 345 347 347 344 334 333 333 334 336 337 335 336 338 336 336 337 336 335 335 335 335 334 334 334 333
348 349 348 349 350 350 351 352 353 353 352 352 352 352 351 350 350 351 351 350 351 351 351 351 351 351 350 349 349 349 349 348 348 348 348 348 347 347 347 347 347 347 347 346 347 347 346 345 345 344 343 342 341 342 342 342 342 342 343 343 345 347 347 343 332 332 333 337 338 336 334 334 337 337 338 337 336 336 336 335 334 334 334 334 333
347 348 347 348 348 349 350 350 350 349 350 351 351 351 349 349 350 350 350 350 351 350 350 349 350 350 350 350 349 349 349 348 348 348 347 347 347 346 346 346 346 346 347 346 345 345 345 344 344 343 342 342 340 340 341 341 342 341 342 343 345 347 346 340 332 334 336 340 336 338 335 340 340 339 338 335 334 335 335 335 334 334 334 333 333
346 348 348 347 347 348 348 348 348 348 348 348 348 348 347 346 349 350 349 349 348 349 349 349 349 349 350 349 349 348 348 348 348 347 347 347 346 346 346 345 345 344 345 345 344 344 343 343 343 342 342 341 341 340 341 340 341 341 342 343 344 343 344 339 333 334 337 336 335 335 336 341 340 340 340 337 336 336 335 334 333 333 334 334 334
345 346 346 347 347 347 346 346 347 347 346 347 347 345 346 346 348 348 348 348 347 347 348 348 348 348 348 347 348 347 347 347 349 347 347 346 346 345 345 344 343 343 342 341 341 342 342 343 342 341 340 339 339 339 340 340 340 341 341 342 342 339 335 335 334 334 334 334 335 334 341 342 340 340 340 339 336 334 334 334 334 334 334 333 333
343 344 345 345 346 345 345 345 346 346 345 345 343 342 346 347 345 347 347 346 346 346 346 346 346 345 343 343 341 340 341 344 345 344 347 345 346 346 344 344 343 342 342 341 342 342 342 341 339 340 339 340 339 340 340 340 340 341 342 342 340 331 334 334 334 335 334 335 337 335 343 342 340 339 339 338 336 337 336 334 334 334 334 334 333
339 341 343 344 344 344 344 345 345 344 344 344 343 343 345 345 341 342 343 343 345 346 343 342 344 339 342 339 338 341 338 339 343 346 344 346 345 345 344 343 343 342 342 342 342 341 341 340 340 340 339 341 341 329 332 336 338 339 341 343 332 330 334 334 334 334 335 334 336 339 343 342 339 339 339 339 338 337 335 334 334 334 334 333 333
337 339 341 343 342 341 343 344 344 343 342 341 341 342 340 339 338 339 342 344 345 343 339 342 337 336 337 338 338 336 337 338 342 346 346 346 345 345 344 343 343 343 342 342 341 341 340 341 341 341 342 340 329 327 328 327 327 336 336 331 329 329 333 333 333 334 334 335 334 343 343 342 339 340 339 339 339 338 338 336 334 332 333 334 333
337 339 339 342 341 341 342 343 342 341 340 338 339 339 339 339 338 338 338 339 339 340 338 339 337 336 337 336 336 338 336 335 344 345 345 344 343 345 344 343 343 342 342 341 341 341 342 341 340 339 334 333 328 328 328 327 328 328 327 326 328 330 333 333 333 333 334 338 336 343 343 342 341 339 338 339 339 339 338 336 335 333 333 332 333
338 339 339 338 338 340 341 341 341 340 337 338 339 338 337 337 337 337 337 337 337 337 337 338 337 336 336 336 336 336 334 335 336 341 340 340 338 338 340 338 337 335 342 331 331 335 333 330 328 330 328 329 329 330 330 328 329 328 327 326 328 330 331 333 334 334 335 335 337 343 343 342 341 339 339 340 340 339 337 335 334 334 333 333 333
339 337 336 337 338 340 341 341 341 339 338 338 339 340 336 334 335 336 335 334 336 337 337 337 336 335 335 336 337 335 335 336 337 338 340 339 338 337 337 336 334 334 336 332 332 331 329 329 328 328 329 328 328 330 330 330 328 328 326 325 328 331 331 332 334 335 335 335 339 343 342 342 341 339 339 341 340 339 338 335 334 334 333 333 333
336 334 336 337 336 338 340 340 339 338 338 339 339 337 334 333 334 335 334 334 334 335 336 337 337 336 335 337 335 334 334 333 336 337 337 337 337 337 335 335 333 333 335 332 332 331 329 329 328 328 327 330 332 330 331 330 327 328 327 326 327 331 332 333 334 335 335 336 340 343 342 342 342 341 341 341 339 338 338 337 335 334 333 333 334
334 332 333 335 336 336 339 339 338 339 338 338 336 335 333 333 333 339 335 337 336 335 336 337 338 336 337 337 336 333 333 333 335 336 335 336 335 334 334 333 334 333 335 332 330 328 329 329 329 328 329 330 331 332 333 332 329 328 327 327 330 331 332 332 334 335 336 336 338 342 342 341 341 342 341 340 339 338 338 337 336 336 335 334 333
330 331 332 335 335 336 337 336 337 338 337 337 336 334 333 333 335 334 333 340 333 335 337 336 335 336 336 336 336 332 331 333 333 334 335 334 333 333 334 333 332 332 332 330 329 328 327 330 330 328 326 327 329 330 332 332 329 329 328 327 329 332 333 332 333 334 335 335 335 339 343 342 341 341 341 339 339 338 338 336 336 336 335 334 333
329 332 333 334 333 335 335 335 335 336 336 335 334 333 333 333 334 333 335 338 333 336 336 334 333 334 333 335 336 332 332 332 333 333 334 332 332 332 332 331 330 330 330 330 329 328 329 328 329 329 328 326 329 330 330 330 330 330 330 328 328 331 332 331 332 333 333 333 333 333 343 342 341 341 341 340 338 338 337 335 337 337 335 335 334
330 332 333 332 333 334 334 335 334 337 337 334 334 332 333 332 333 334 337 336 336 336 335 333 333 332 333 334 334 334 332 332 333 333 332 331 330 330 330 330 330 329 328 329 329 328 327 326 327 327 324 323 328 329 329 329 329 330 331 329 328 331 331 331 331 332 332 331 332 333 341 344 342 340 340 340 340 338 336 336 339 339 336 335 335
329 333 333 333 334 334 334 334 334 337 336 334 334 332 332 332 333 335 337 337 337 335 334 332 334 333 334 332 333 333 333 332 333 332 330 328 327 328 330 330 330 329 329 329 330 330 329 328 328 327 327 325 327 328 328 328 328 330 330 330 330 330 330 331 331 332 333 333 333 334 336 338 341 340 340 340 339 339 337 335 339 340 338 337 336
331 334 334 334 334 335 334 334 334 336 334 333 333 333 333 334 334 336 337 337 336 334 333 332 332 333 332 331 332 334 334 333 332 331 332 328 328 329 328 329 330 330 329 329 331 330 329 329 328 329 329 329 328 328 330 328 327 328 330 330 330 330 330 331 332 332 332 333 333 333 333 335 336 339 339 341 339 340 338 335 335 340 339 338 337
332 334 334 333 335 337 336 335 335 333 332 333 333 332 333 334 335 335 336 334 333 333 333 331 333 332 332 332 333 334 333 332 332 330 329 329 329 329 329 329 329 331 329 329 328 328 327 327 327 327 331 325 327 325 326 327 328 329 329 329 329 329 329 330 331 331 332 332 333 332 333 333 332 333 336 341 340 339 338 338 334 334 339 338 337
333 333 333 334 336 336 337 336 335 332 333 332 333 335 336 336 336 334 333 332 332 332 332 332 332 333 333 332 333 334 333 331 332 330 328 328 329 328 328 328 330 330 329 327 327 326 328 325 325 328 326 326 328 329 326 326 327 328 328 329 329 330 330 329 330 331 331 330 331 331 331 331 331 332 333 331 340 338 338 339 337 337 339 339 338
333 333 334 335 334 335 336 334 333 332 332 332 333 334 334 334 334 335 332 331 331 331 332 332 332 332 333 332 331 333 332 331 331 330 328 328 329 328 327 329 330 329 328 328 327 325 325 326 326 326 325 327 330 327 326 326 327 327 326 327 328 329 329 329 330 331 331 331 330 329 329 329 328 331 335 329 329 335 338 338 338 338 338 339 339
333 333 333 333 334 334 334 332 331 331 331 332 331 331 332 332 332 332 331 331 330 330 331 331 331 331 331 331 331 333 332 332 331 331 329 329 328 328 328 329 329 328 328 327 325 325 326 327 324 326 324 324 327 328 327 326 326 325 326 326 327 327 328 329 330 330 331 329 329 329 328 328 333 339 328 328 328 329 337 338 338 338 337 337 336
333 333 332 332 332 333 332 331 331 331 331 331 331 331 331 331 330 329 332 329 329 330 331 330 329 330 331 331 332 333 333 333 332 331 329 330 329 329 329 329 328 328 327 325 325 325 325 325 324 326 327 326 325 327 326 326 327 326 324 326 327 328 327 328 329 333 330 330 330 329 327 328 331 330 329 328 328 328 330 334 338 336 337 335 335
332 332 332 332 332 331 331 332 330 330 329 330 330 329 329 328 328 328 328 326 326 328 330 329 328 330 330 331 333 333 334 333 332 331 331 331 329 329 329 328 328 326 325 324 325 325 325 324 324 324 326 327 325 326 326 326 326 325 324 325 326 327 327 328 328 328 329 331 333 334 332 329 330 329 329 329 329 329 327 327 326 327 328 335 337
331 331 331 331 331 331 331 330 329 329 329 328 328 327 327 327 327 328 326 326 326 328 327 328 328 328 330 331 332 332 334 333 332 331 331 330 329 328 328 328 327 326 324 325 323 323 324 324 324 324 323 325 325 327 326 324 321 320 323 324 326 328 328 327 327 327 328 329 331 332 332 331 330 328 330 330 330 328 328 328 329 328 329 333 336
330 330 330 330 330 330 330 328 328 329 328 327 327 326 326 325 325 325 324 324 326 326 327 327 327 328 331 332 332 333 333 333 332 330 329 333 328 328 328 326 327 326 325 323 323 323 323 324 324 323 322 320 322 324 324 323 320 319 322 323 323 325 328 327 326 327 328 329 330 330 330 330 329 328 326 329 330 328 327 327 327 328 329 329 329
329 330 329 330 330 330 329 328 328 328 327 327 327 327 327 327 325 324 323 324 326 325 325 326 327 330 330 331 332 332 332 331 331 331 331 329 328 326 326 326 326 326 326 325 324 328 325 325 324 321 322 319 320 324 326 322 318 316 316 315 319 320 324 323 324 326 326 327 327 328 328 330 330 327 329 328 327 328 327 327 327 329 329 328 328
329 329 330 330 329 329 329 329 329 328 327 327 327 327 327 327 326 324 325 324 326 326 326 327 330 329 329 330 331 331 331 331 331 331 330 329 328 326 326 326 325 326 325 325 324 324 324 325 323 322 321 320 320 324 324 319 318 316 316 315 312 312 317 318 321 323 326 325 327 328 327 329 330 330 328 326 324 325 327 328 328 328 328 327 328
328 328 329 329 328 328 329 329 329 329 328 328 329 328 328 327 327 326 325 324 323 325 326 326 326 327 328 329 329 329 329 330 331 330 328 327 326 326 324 324 324 325 325 324 322 324 323 324 324 322 321 317 316 319 324 323 321 317 311 311 311 311 310 314 317 319 323 325 327 328 330 329 329 329 326 324 325 326 327 329 328 327 327 329 328
328 328 328 328 329 329 329 330 329 329 329 330 328 328 329 326 325 324 323 323 323 322 323 321 323 326 326 325 326 327 328 328 326 326 327 325 323 322 323 322 322 323 322 320 321 324 325 324 325 323 319 318 317 315 320 323 322 320 316 312 309 307 308 314 318 318 322 323 325 325 329 327 325 325 326 327 328 328 328 328 328 329 328 329 329
327 328 328 328 328 329 330 329 328 328 329 328 327 327 327 324 322 320 319 318 318 319 319 320 319 321 322 321 324 325 324 322 322 323 325 324 321 320 319 320 321 322 320 320 319 319 319 320 324 323 320 318 320 316 316 320 322 325 319 316 313 310 312 315 314 312 321 322 322 324 325 325 323 326 328 327 327 327 329 328 328 329 329 329 329
328 330 329 327 328 329 329 329 328 327 327 325 326 326 324 323 322 321 320 318 318 316 318 319 320 319 320 319 320 321 322 321 320 321 321 322 320 319 320 321 321 321 322 321 320 320 320 320 321 320 321 321 320 315 318 317 318 320 321 321 322 317 319 315 310 316 314 318 320 321 321 324 326 327 326 326 326 325 326 327 327 328 329 329 327
329 330 328 326 326 329 330 327 325 325 325 325 325 324 323 321 320 319 319 318 318 317 319 319 320 321 319 319 320 319 318 318 318 319 320 320 318 318 320 320 321 321 322 320 319 319 321 321 321 320 321 320 319 320 317 317 317 317 319 318 319 320 318 315 316 315 315 314 315 319 318 318 320 323 325 324 323 323 323 325 327 328 326 324 322
327 329 328 327 327 330 330 328 325 324 324 325 326 323 322 320 319 318 318 318 318 319 320 321 320 319 317 317 317 316 317 316 317 317 318 319 319 318 319 320 320 320 321 318 317 318 317 318 318 319 319 318 319 318 318 316 317 317 316 316 317 316 317 317 317 315 312 313 313 314 315 320 320 321 323 323 322 324 324 326 325 322 319 317 317
326 328 328 328 329 330 329 328 325 324 325 325 325 323 322 321 319 319 319 318 319 319 319 318 318 317 316 314 315 315 315 315 316 316 315 315 317 319 319 318 317 319 319 316 316 317 317 317 316 316 316 315 314 317 316 315 315 316 316 317 315 314 316 315 312 314 313 310 312 311 312 314 315 317 320 321 323 323 323 320 317 316 315 314 314
326 327 327 328 330 330 328 325 323 324 325 326 325 323 321 321 321 320 319 318 318 318 318 317 317 315 314 314 314 314 314 314 315 316 316 317 318 320 317 316 317 320 318 317 317 316 315 315 315 315 314 313 312 312 312 311 311 312 314 315 316 318 315 312 313 312 310 310 310 309 310 311 315 315 315 319 321 322 321 317 314 313 313 312 312
Wind_Speed
4 9 8 12 13 15 17 18 19 19 20 20 20 20 20 20 21 20 19 20 18 19 19 19 18 18 18 18 18 18 19 19 18 18 18 18 19 19 19 18 18 18 18 18 16 15 17 16 16 16 16 16 16 16 16 16 15 15 15 15 16 16 15 15 16 17 19 18 18 17 15 14 15 14 13 15 13 14 15 15 14 9 8 12 16
10 7 8 9 14 15 17 18 19 19 20 20 20 19 20 20 21 21 20 19 19 19 17 17 17 17 17 17 18 18 17 17 18 17 17 17 18 19 18 18 18 18 18 17 16 15 16 16 16 15 15 15 15 15 15 16 15 15 15 15 15 14 15 15 16 16 17 18 18 17 17 17 16 14 16 15 14 16 15 16 16 9 6 15 16
10 10 8 10 14 16 17 18 19 19 20 20 20 20 20 20 20 20 19 19 18 17 17 16 16 16 16 17 17 17 17 17 17 17 17 17 18 18 18 17 18 19 18 17 15 16 15 15 15 14 14 14 13 14 15 15 14 13 13 13 14 14 14 15 15 17 16 17 17 17 17 18 17 15 16 15 15 15 15 15 14 13 9 18 15
14 10 9 12 15 16 17 18 19 19 20 19 19 20 20 20 21 20 20 19 19 17 16 15 15 15 15 16 17 17 17 17 16 16 16 17 18 18 18 18 18 17 18 17 15 15 15 14 14 14 14 14 13 13 13 14 13 13 13 14 12 12 14 14 15 17 17 16 15 10 5 4 10 15 15 15 14 16 16 15 15 15 16 17 18
14 12 10 10 11 14 17 18 18 19 19 19 18 20 19 20 21 19 18 18 17 17 16 15 15 15 15 15 16 17 16 15 13 13 13 15 16 17 16 17 17 17 16 16 16 15 14 13 13 13 12 12 12 12 12 12 13 12 12 12 11 9 10 12 15 14 14 14 14 10 5 4 5 14 13 14 14 15 15 14 15 15 15 16 17
13 11 10 10 9 12 18 18 18 20 19 19 19 19 19 20 20 19 18 17 17 17 17 16 15 15 15 15 16 16 16 14 13 12 12 12 13 13 15 16 16 16 15 15 15 15 14 13 12 12 12 11 11 11 11 11 12 12 11 11 10 9 8 4 5 10 12 12 11 4 6 4 4 7 15 14 13 12 9 15 13 16 15 16 16
14 10 10 10 8 11 17 18 18 19 19 19 19 19 19 19 19 18 17 17 17 17 17 17 16 15 15 15 15 15 15 14 12 12 12 13 12 12 13 14 14 14 14 14 14 14 13 12 11 11 10 11 11 11 11 11 11 11 11 11 10 8 7 6 3 5 8 5 5 4 5 4 2 4 14 12 11 11 10 11 16 14 14 14 14
10 9 10 10 8 13 17 17 18 18 18 18 19 18 18 18 18 17 17 16 15 14 16 16 16 15 15 15 14 14 14 13 12 12 12 11 12 12 11 12 12 12 14 13 14 13 13 12 11 9 10 10 10 11 11 11 11 10 10 10 9 8 6 4 3 2 7 5 5 5 5 4 5 5 12 14 13 13 12 15 14 14 14 14 14
10 10 10 10 10 17 16 16 17 17 18 18 17 17 17 18 18 17 17 16 15 15 15 15 16 16 15 14 14 13 14 14 13 12 11 12 13 14 13 12 12 12 12 12 13 12 12 11 10 9 9 10 10 11 11 10 10 9 9 9 9 8 6 6 3 7 6 5 5 4 4 4 4 5 11 13 14 13 14 11 11 13 13 12 13
10 9 10 9 10 16 16 16 16 17 17 17 18 18 18 17 17 17 16 16 15 14 14 15 16 16 14 14 14 15 15 15 15 15 14 14 14 13 13 13 13 12 12 13 13 13 12 10 9 9 10 9 9 10 10 9 9 9 9 9 8 8 9 10 14 12 7 5 6 5 5 7 4 4 11 14 14 14 13 13 9 11 11 13 13
10 9 8 10 13 16 16 16 16 17 16 17 18 17 18 18 17 17 16 16 16 15 14 14 15 14 14 15 15 15 15 15 15 15 14 14 14 13 14 13 12 10 10 12 12 12 12 9 9 9 8 8 8 8 8 8 8 8 8 9 10 10 10 10 10 7 6 7 6 6 10 12 5 4 13 13 13 14 14 14 13 12 12 13 14
10 8 8 9 16 16 16 16 16 16 18 18 18 17 17 16 17 16 15 15 15 15 15 13 12 13 14 15 15 15 15 15 14 15 14 14 14 14 13 13 12 11 10 11 12 13 12 9 9 8 6 7 7 7 7 7 7 8 8 10 10 11 11 10 7 6 5 6 7 6 6 6 5 9 15 14 14 13 12 12 12 12 11 11 12
10 8 8 9 10 15 16 16 16 16 17 17 17 17 16 16 16 15 14 14 14 15 15 13 11 11 13 14 14 14 14 14 14 14 15 14 14 13 13 12 12 12 11 11 12 13 12 10 8 7 6 5 6 6 7 7 8 9 10 11 11 11 10 11 6 6 5 5 6 6 6 5 5 12 13 14 13 14 13 14 12 12 12 12 12
10 8 8 9 8 15 15 15 15 15 16 16 16 16 16 15 15 14 13 13 14 14 12 11 11 10 11 12 14 14 13 13 13 14 15 14 14 13 12 12 11 12 12 12 12 13 12 10 8 6 5 5 5 6 7 7 7 8 9 10 10 10 10 9 7 5 5 5 6 6 4 4 6 13 14 13 13 13 14 14 13 13 13 12 12
12 10 9 8 9 9 15 14 14 14 15 15 16 15 15 14 13 13 13 13 15 13 12 11 10 11 13 14 14 13 13 12 12 14 14 14 13 13 12 12 11 12 12 12 12 12 11 10 9 6 5 4 5 5 6 6 7 7 8 9 9 9 9 5 6 5 5 5 5 5 4 4 12 12 13 13 13 13 13 12 13 12 12 12 11
12 12 10 8 8 8 9 14 14 15 15 16 16 16 16 14 14 13 13 14 13 12 11 11 12 12 13 14 13 13 14 13 12 13 14 14 13 13 12 12 12 12 12 12 11 10 11 10 9 7 4 3 5 5 5 5 6 6 6 7 8 8 8 6 6 4 4 5 5 5 4 5 14 14 13 13 13 12 12 12 12 12 12 11 11
12 11 10 10 9 8 8 9 11 17 15 15 16 17 16 14 13 13 14 14 13 12 12 12 12 13 13 14 14 14 15 14 14 14 14 13 13 12 12 12 12 12 11 11 11 11 10 9 8 7 5 2 2 5 5 5 5 5 5 6 8 7 7 8 6 5 5 4 5 5 5 5 12 14 13 13 13 13 12 13 12 12 11 12 12
11 11 11 10 8 8 8 9 10 10 10 15 17 17 15 13 13 13 15 14 12 11 11 11 11 13 12 12 14 15 15 15 14 14 13 12 12 12 11 11 12 12 12 11 10 9 9 7 7 6 5 3 1 3 6 6 6 5 5 6 8 7 8 9 6 5 4 5 5 5 5 9 14 14 14 12 11 12 12 12 12 12 12 11 11
10 12 11 10 9 9 9 8 8 8 9 9 9 14 16 12 10 13 17 15 12 12 12 11 13 12 13 13 13 14 14 14 14 13 12 11 13 12 11 11 11 11 11 10 9 8 7 6 5 5 4 2 1 2 6 7 6 7 6 6 9 6 6 7 5 5 4 4 4 5 5 13 12 14 14 14 11 11 12 12 11 11 11 11 11
10 11 9 8 9 9 8 8 8 8 8 8 9 8 10 11 11 14 16 14 13 11 13 14 13 14 12 11 11 9 11 11 16 11 12 10 10 8 11 10 10 10 9 8 7 7 6 5 4 4 3 2 1 2 5 7 6 7 6 5 9 4 4 6 6 5 5 5 4 5 9 13 14 13 14 14 12 11 11 11 11 10 10 11 11
7 8 8 8 9 9 9 7 8 9 9 9 7 6 7 12 10 14 13 11 10 11 12 14 12 11 10 10 8 6 6 5 7 7 11 5 9 10 11 10 10 10 9 8 7 6 6 5 4 4 3 1 0 3 5 6 6 6 5 4 8 3 5 6 5 5 4 4 3 5 11 11 14 13 13 13 14 12 11 11 10 10 10 10 10
8 7 7 8 8 7 8 8 8 9 9 7 6 5 6 8 7 6 6 7 7 7 6 5 9 6 9 6 4 4 5 4 5 8 5 6 8 10 10 10 10 9 8 8 6 5 4 4 3 2 1 2 3 2 4 6 7 5 5 4 5 2 6 7 7 6 5 3 3 5 11 11 13 13 13 14 13 12 11 9 9 9 10 10 10
8 8 7 9 7 7 7 8 9 9 10 8 7 7 6 4 4 6 5 6 5 5 3 5 5 5 5 4 4 3 3 3 4 6 6 9 7 9 10 10 9 9 8 7 6 4 2 1 3 5 6 6 3 4 4 5 6 7 5 5 3 2 6 7 6 5 5 4 3 9 10 11 12 13 13 13 12 12 12 11 9 9 9 9 10
10 8 8 6 7 7 8 9 9 10 10 7 7 7 7 6 4 3 5 4 4 4 4 5 5 5 5 4 3 3 3 4 5 9 8 5 5 7 9 10 10 8 7 4 4 2 3 6 7 7 5 3 3 4 5 5 6 6 3 6 2 1 6 6 6 5 5 5 5 11 10 11 11 11 11 12 12 11 10 10 9 9 8 9 10
8 8 7 7 6 8 8 9 9 10 10 8 8 7 7 7 6 5 5 3 3 3 4 4 5 5 5 4 3 3 3 4 3 4 3 4 3 3 4 3 3 3 4 2 2 2 4 2 3 3 3 3 4 4 4 5 5 4 4 3 5 3 3 6 7 5 4 4 5 11 11 10 10 11 11 12 12 11 10 9 9 9 8 9 10
8 9 7 8 7 7 9 8 9 9 9 9 9 8 9 7 5 4 5 2 3 4 4 4 5 4 4 4 3 4 4 3 4 5 4 4 4 3 4 4 3 3 2 3 2 2 2 2 2 1 1 1 2 3 3 3 5 5 5 4 2 5 5 6 6 5 4 5 6 11 10 10 9 10 11 13 12 12 12 11 9 8 8 8 9
8 7 7 7 7 8 8 8 8 9 10 9 8 7 5 4 4 4 4 4 3 4 4 4 4 4 3 4 5 4 4 4 5 5 5 4 4 4 4 3 3 2 1 3 3 2 2 2 1 1 2 2 2 3 3 3 3 5 5 5 3 6 5 7 6 6 5 5 5 10 9 9 8 9 13 12 12 11 11 11 10 9 8 9 9
9 8 6 6 8 8 6 7 7 8 7 7 8 6 6 7 5 7 4 5 4 4 4 4 4 4 3 4 4 5 5 5 5 5 4 3 3 2 3 3 2 3 2 4 4 2 2 1 1 1 1 2 3 3 2 2 4 5 5 6 6 7 7 5 5 5 3 2 4 9 11 11 9 10 14 13 12 11 10 10 11 10 9 9 9
11 11 8 8 6 6 6 6 6 9 8 8 8 6 7 7 4 5 5 6 3 3 5 5 4 4 3 4 5 6 5 5 5 4 4 4 4 4 4 4 4 4 4 2 3 2 2 2 2 2 2 2 3 3 1 2 4 5 5 6 7 8 8 7 6 6 7 7 6 6 8 8 7 8 12 12 11 12 11 10 10 11 10 10 9
5 7 7 5 5 6 8 8 6 8 9 7 7 7 7 6 6 5 5 6 3 4 4 4 4 5 4 4 4 4 5 5 4 4 5 4 4 5 5 4 4 3 4 4 2 3 3 1 2 3 3 2 2 2 1 3 5 6 6 6 7 8 7 7 7 6 6 3 5 3 6 10 9 7 7 11 12 11 10 10 11 11 10 10 10
10 10 9 9 7 7 7 8 7 10 9 9 9 9 6 7 7 6 6 5 5 5 5 5 5 5 4 4 4 4 4 4 4 4 4 4 4 4 4 4 4 3 3 3 2 3 2 2 1 2 2 3 3 1 1 4 4 6 5 6 6 6 7 6 5 5 4 4 3 3 4 10 10 8 6 9 10 11 10 11 14 12 11 11 10
10 11 8 6 8 8 8 7 7 8 10 9 8 8 7 6 7 6 5 5 5 4 4 5 6 4 3 4 4 4 4 4 5 4 5 5 4 4 3 4 4 2 2 3 4 3 2 2 1 2 2 2 2 2 2 5 6 6 6 5 4 6 7 6 6 6 4 4 5 5 2 4 8 7 7 7 10 10 10 8 13 14 13 12 11
3 6 7 10 11 9 9 8 8 8 11 10 8 6 6 6 6 5 5 6 6 5 5 5 4 5 4 4 4 4 3 4 4 5 4 5 4 4 3 3 3 3 2 3 3 2 2 2 1 2 2 2 2 3 4 5 6 5 6 4 3 5 6 6 5 5 4 5 5 1 1 2 3 5 6 7 10 9 9 7 9 13 13 13 12
5 6 9 10 9 7 6 7 8 8 10 9 7 6 6 5 5 5 6 6 6 6 5 4 4 4 5 4 3 4 4 4 5 4 5 5 5 5 4 4 3 3 3 3 3 3 2 2 1 2 2 2 3 3 5 6 5 5 5 3 2 2 3 5 6 5 5 4 2 3 2 1 2 2 2 5 8 9 8 8 7 6 12 11 12
5 9 11 12 11 9 8 7 9 9 9 8 8 7 6 6 6 5 5 5 5 5 4 4 4 3 4 4 4 4 4 4 4 6 5 5 5 5 4 4 4 3 4 2 3 2 3 2 2 2 1 2 3 4 5 5 5 5 3 3 3 2 2 2 2 3 3 3 3 3 2 3 3 3 3 3 6 10 9 8 8 7 12 11 11
9 10 10 10 11 10 11 9 9 10 9 8 7 7 7 6 5 6 5 5 5 5 4 4 4 4 4 4 3 4 4 4 3 4 5 4 4 4 4 3 3 3 3 2 1 2 2 2 1 3 3 2 4 4 4 5 4 4 2 3 3 2 3 2 3 2 2 4 4 3 3 3 2 1 3 2 2 4 9 9 8 6 9 11 11
12 13 12 12 11 11 11 11 11 11 9 8 8 7 7 7 6 5 6 6 6 5 3 3 3 4 4 4 4 4 4 4 4 3 5 4 4 5 4 4 3 3 2 2 1 1 3 2 3 3 4 3 3 4 3 4 4 2 1 2 2 2 2 3 4 3 3 4 4 3 3 2 1 4 2 2 2 2 6 9 8 7 7 8 9
11 12 11 11 10 9 9 9 8 8 8 9 9 7 6 6 5 5 4 5 5 4 4 4 4 4 4 4 4 4 4 5 5 5 5 5 5 5 4 4 3 3 3 3 1 2 3 3 3 3 4 4 4 4 4 3 3 2 0 3 4 4 5 5 4 4 4 4 4 3 2 2 3 2 2 2 1 2 3 3 5 5 5 3 1
10 12 12 11 10 8 7 8 9 8 7 7 7 6 6 5 4 3 3 3 2 2 3 3 2 3 3 4 5 5 5 6 6 6 6 5 5 5 5 4 5 4 4 3 3 3 3 3 4 3 3 4 4 4 4 4 3 2 3 5 4 5 4 5 4 4 4 3 4 4 3 2 2 2 2 2 2 2 3 3 3 2 2 6 6
10 11 11 11 11 10 8 7 8 8 7 6 6 6 5 6 6 4 3 1 1 2 2 3 4 4 4 4 5 6 5 5 6 6 6 6 5 5 5 4 4 4 4 4 3 3 3 4 3 4 3 3 4 5 4 4 2 3 5 3 5 5 5 4 4 5 4 4 4 3 4 2 2 2 2 2 3 2 4 4 4 4 4 6 7
13 14 13 12 12 11 10 10 8 8 8 8 8 8 7 5 4 5 5 3 3 3 4 4 4 5 4 3 3 5 5 5 5 5 5 4 4 4 4 3 3 3 3 3 3 3 3 3 3 2 3 3 2 3 3 3 2 3 5 5 5 4 5 5 6 5 5 5 4 3 2 3 2 2 2 3 3 4 4 4 4 4 4 4 5
10 12 14 14 12 11 12 11 9 8 8 9 8 7 6 7 7 5 4 5 5 5 5 4 4 4 3 3 5 5 6 5 4 4 4 4 4 3 3 3 3 3 2 2 3 3 3 3 4 3 1 3 1 2 5 3 3 2 5 2 4 3 3 6 7 6 4 3 3 3 2 3 3 2 2 3 2 3 3 3 4 4 4 4 3
13 11 10 12 11 10 9 10 8 8 7 6 7 7 5 5 5 4 6 4 1 1 3 3 3 5 4 4 5 5 5 5 4 4 5 4 4 4 3 3 3 2 2 2 2 3 3 4 4 5 2 1 2 1 1 0 3 2 3 5 1 2 3 4 4 6 4 3 3 3 3 3 4 3 3 3 3 3 2 4 4 3 4 4 4
8 8 7 9 9 8 8 8 8 6 6 6 6 6 7 4 4 6 3 2 4 3 3 3 3 4 4 5 5 5 5 4 4 3 3 4 4 4 3 3 3 2 4 4 3 3 3 3 4 3 5 3 1 2 2 1 4 6 2 2 3 3 3 2 3 3 3 4 3 4 4 4 4 3 3 3 3 3 2 5 3 2 3 4 4
8 7 7 7 6 7 7 7 7 7 6 6 5 5 6 6 6 4 3 5 5 5 5 3 3 3 4 4 4 4 4 4 3 3 3 4 3 3 4 3 3 2 2 3 4 4 4 4 5 4 4 5 2 2 1 1 3 1 5 5 3 1 2 2 3 3 3 3 3 3 5 4 3 2 2 3 3 4 4 4 4 4 3 4 4
7 5 5 5 6 7 7 5 5 5 5 4 4 6 7 8 8 7 7 5 6 6 7 6 4 4 4 2 4 4 4 3 3 3 3 3 3 3 3 3 4 4 3 4 3 3 2 3 4 5 4 3 5 4 2 0 2 2 3 4 5 4 7 5 2 3 2 3 3 4 4 3 2 2 3 5 5 5 4 5 5 5 4 4 4
6 6 5 4 5 5 4 4 4 4 3 3 4 5 7 7 7 7 7 7 7 3 3 4 5 4 5 4 4 3 4 5 3 4 4 4 4 3 4 5 5 5 3 5 5 4 3 2 2 3 4 5 5 4 6 3 1 1 1 2 1 2 6 7 2 4 4 1 3 3 3 3 3 4 5 5 5 4 4 4 6 6 6 5 5
7 7 5 4 5 4 4 3 2 2 2 2 2 4 8 7 7 6 6 7 6 6 5 4 4 5 6 6 5 4 3 4 5 4 4 4 4 4 5 4 5 4 5 5 4 3 3 3 3 3 3 3 5 7 5 4 5 2 1 1 3 5 3 4 4 5 5 6 2 3 2 2 3 4 4 4 3 3 4 4 5 5 5 5 4
7 8 6 5 4 5 4 3 2 2 2 3 3 3 7 8 8 7 6 4 6 6 4 5 6 6 7 5 6 4 4 3 4 5 4 4 3 5 5 5 5 4 5 5 3 4 4 4 4 5 4 3 2 2 4 4 3 3 2 1 4 4 4 4 5 3 4 5 2 1 1 2 4 4 5 3 2 3 4 4 5 4 4 4 4
6 6 6 5 5 5 5 4 3 3 3 3 4 4 6 7 8 7 8 6 6 5 5 6 6 5 6 5 5 5 5 5 4 4 5 4 5 5 6 5 5 4 4 4 5 5 4 4 4 4 4 5 2 3 3 3 2 3 2 4 3 3 4 3 3 4 4 2 6 5 3 5 4 2 4 4 4 4 4 4 4 5 5 5 5
6 7 6 6 5 6 5 5 4 3 4 4 5 7 6 7 8 8 9 9 8 7 7 6 6 6 7 5 6 5 4 5 5 4 4 4 5 5 5 4 4 4 5 5 5 5 4 4 4 5 5 5 5 5 5 4 4 4 3 3 5 6 5 4 5 3 3 3 5 4 3 2 4 5 2 3 3 3 4 4 5 5 5 5 4
Wind_Direction
187 141 139 141 139 134 132 126 123 120 120 119 120 120 118 114 112 110 109 110 110 111 111 112 111 110 109 110 109 109 109 109 110 110 111 111 111 112 114 112 107 105 103 102 100 99 97 99 98 97 95 94 92 90 88 88 89 89 88 89 88 89 93 89 85 75 77 79 77 71 73 77 81 83 97 92 77 78 76 71 68 62 55 70 71
151 141 134 142 139 134 127 125 123 121 121 121 123 122 120 117 113 112 112 112 113 114 112 112 111 111 111 111 110 110 109 111 111 111 112 114 116 117 116 113 111 108 105 105 105 101 101 99 97 94 93 93 90 88 89 90 89 88 86 87 90 96 89 87 87 84 81 79 78 76 74 78 82 90 91 83 84 81 76 73 73 73 76 73 69
132 137 134 143 139 132 127 126 124 122 123 125 126 124 122 118 116 114 116 116 117 116 115 114 112 112 111 112 112 111 110 111 112 113 115 117 118 119 116 115 111 109 107 107 106 103 104 102 101 101 97 91 92 91 88 89 89 87 90 92 98 99 98 99 89 81 77 76 76 77 74 81 87 90 94 93 86 85 76 73 71 74 75 74 75
134 138 139 142 139 133 130 127 125 125 127 128 129 127 124 121 119 118 119 120 120 118 116 115 114 112 113 113 115 114 114 114 116 118 118 118 117 116 116 111 106 106 108 107 105 105 102 100 96 94 95 94 90 90 87 84 84 83 85 91 96 101 98 99 96 87 82 81 79 73 59 26 81 90 94 94 89 79 77 75 73 71 71 74 72
133 138 137 136 138 135 131 128 127 127 129 131 131 130 125 123 121 121 123 124 122 121 119 118 116 116 115 116 116 117 117 117 116 113 114 118 120 117 112 110 110 110 110 108 108 107 103 100 100 98 95 91 90 87 85 84 84 85 85 84 91 92 102 106 107 78 69 87 84 77 65 45 66 93 92 88 88 93 90 80 77 74 71 70 68
135 138 134 134 139 137 132 130 130 130 131 134 133 130 126 125 124 125 126 125 124 124 123 122 121 120 119 118 118 119 120 118 116 113 110 106 105 110 113 113 114 114 110 108 106 104 103 102 98 96 92 89 87 84 82 80 77 79 81 85 85 88 88 75 120 48 64 73 79 74 83 62 50 76 88 96 89 67 76 86 74 71 68 66 67
134 134 132 134 136 140 135 133 132 132 135 136 134 131 128 127 127 127 127 125 125 126 126 123 123 121 119 118 118 119 120 118 109 110 109 108 109 108 112 113 113 110 110 109 106 105 104 103 100 95 89 85 80 78 76 74 72 73 76 74 76 68 55 45 37 55 58 68 64 73 77 77 55 98 95 95 93 92 74 87 80 76 71 70 70
125 132 132 133 136 140 136 133 133 134 135 136 135 131 130 129 129 127 126 125 124 123 123 121 120 119 117 117 119 119 117 113 104 108 111 113 116 114 110 109 108 112 111 108 108 106 105 104 99 91 86 83 78 73 71 68 66 64 64 63 59 53 44 30 30 2 89 83 85 86 81 72 57 52 80 83 85 90 95 83 78 76 75 75 73
128 130 129 132 138 140 136 135 135 136 137 137 134 132 131 130 129 126 125 125 124 122 120 118 117 118 118 116 116 116 116 111 103 93 89 92 99 95 91 87 82 82 98 110 109 108 107 105 96 91 88 81 76 72 66 63 60 59 56 52 44 37 20 357 354 121 106 104 96 88 88 83 78 88 89 88 92 87 65 63 71 80 83 80 78
127 129 133 133 138 140 138 138 138 138 138 135 134 134 131 130 127 125 124 125 125 120 119 116 116 119 119 118 117 116 108 105 102 98 90 87 88 93 96 96 94 97 111 116 112 110 109 101 96 93 85 78 73 69 64 56 52 50 48 41 36 27 18 26 89 104 111 112 104 96 95 92 78 77 99 103 96 94 91 90 100 97 90 84 82
128 131 132 131 140 142 142 141 141 139 137 135 136 134 131 128 126 125 125 125 123 119 116 116 115 119 121 119 116 112 106 104 100 97 96 92 93 95 99 100 100 98 106 113 114 113 110 102 99 92 81 74 69 61 53 47 41 42 40 37 32 26 25 58 85 103 109 114 112 107 103 93 86 101 98 91 92 93 88 90 90 87 81 83 81
126 128 127 134 143 144 144 144 142 139 138 137 137 133 129 126 126 125 125 125 123 118 116 113 117 122 122 120 118 113 109 108 105 105 104 105 103 105 106 105 104 104 100 106 110 111 107 106 100 94 83 66 55 47 43 36 29 30 35 39 33 27 30 77 95 103 112 114 109 107 103 98 92 98 99 102 103 94 92 94 83 81 86 90 83
122 125 129 135 139 148 146 144 140 138 138 139 136 131 125 125 124 125 126 124 119 117 116 117 121 123 121 119 119 114 110 110 110 110 108 109 111 110 109 109 107 105 107 109 114 109 106 105 99 89 76 59 41 34 30 24 17 23 31 37 35 31 42 95 101 100 104 106 103 104 107 109 103 102 102 103 105 107 101 96 96 96 94 93 93
123 125 129 133 144 149 146 140 136 136 137 136 131 125 124 123 124 125 124 120 114 114 117 122 124 121 118 118 118 117 113 114 117 117 115 112 110 109 109 108 109 111 112 116 118 110 110 111 106 87 68 41 27 24 18 15 14 22 33 43 43 40 53 95 99 104 109 111 110 116 115 116 117 115 112 106 101 99 98 99 100 99 95 90 89
126 125 126 133 142 143 138 132 133 132 131 131 130 127 124 122 122 126 124 116 115 117 124 127 124 120 121 121 121 118 116 117 120 121 116 113 110 110 111 110 109 111 116 119 115 114 112 109 105 89 55 22 14 12 5 5 9 21 29 43 51 51 65 100 115 118 119 119 119 116 112 112 113 110 107 113 114 106 108 105 95 92 93 92 87
122 126 129 130 132 138 132 135 132 133 132 132 127 123 121 122 128 132 123 116 118 125 127 121 114 113 120 122 123 121 119 116 114 113 113 114 113 112 115 114 112 113 116 118 116 114 110 108 112 112 85 25 353 350 350 347 4 18 25 42 55 58 82 112 119 120 119 119 119 117 114 113 115 116 118 110 106 111 106 101 98 99 97 100 99
124 127 127 129 129 126 133 131 136 134 129 125 122 122 124 130 140 134 119 118 122 123 124 117 114 111 120 127 125 121 116 116 115 112 113 113 115 116 116 115 115 111 107 109 112 110 109 113 119 119 120 109 346 321 333 331 346 4 12 37 51 46 87 120 126 118 120 125 120 119 118 115 121 118 114 113 117 113 110 105 106 107 103 95 89
127 129 130 129 122 124 126 132 133 129 127 125 122 122 127 142 141 124 119 121 120 122 122 115 109 112 114 118 123 121 118 117 115 113 113 110 111 114 113 115 114 113 110 109 114 118 112 116 122 129 131 147 201 300 308 317 332 345 355 36 58 51 80 112 118 123 134 133 126 126 124 129 126 122 118 114 114 118 112 109 111 104 101 97 95
127 130 129 128 124 123 127 127 124 123 117 119 124 130 140 145 129 123 125 121 123 123 123 117 116 117 119 117 120 120 119 117 115 114 114 117 119 115 114 116 121 121 121 117 115 112 113 122 132 126 130 141 265 298 301 312 324 331 339 25 59 68 91 118 126 139 127 124 140 132 142 133 126 122 122 121 119 114 111 116 112 111 104 99 98
127 133 128 122 123 126 128 124 118 115 113 118 124 129 139 132 130 126 128 126 133 120 119 118 124 125 103 103 107 114 122 125 121 120 121 120 118 118 122 124 123 120 118 121 127 132 142 144 137 135 140 155 221 302 298 304 315 317 322 20 64 67 95 138 137 122 123 138 143 150 143 137 129 125 123 122 119 117 118 115 109 109 109 107 103
126 127 128 125 124 130 129 120 115 110 109 110 111 113 128 130 120 125 118 122 131 126 119 121 117 110 98 96 91 79 84 109 117 120 122 124 125 127 128 126 121 121 120 126 130 138 146 150 155 154 150 151 179 300 298 301 306 304 306 26 72 45 94 113 111 116 124 136 145 149 144 137 131 131 128 126 125 124 118 117 121 123 119 112 110
134 128 123 123 129 130 124 114 110 106 107 107 109 116 115 114 110 101 110 126 128 122 114 113 107 93 100 93 86 91 90 95 108 120 132 133 130 130 127 123 121 121 129 132 140 149 159 162 154 135 75 30 3 343 311 311 309 304 307 66 80 79 112 124 128 131 132 136 148 149 140 134 133 129 126 128 127 124 121 119 117 113 109 112 112
135 132 129 134 133 123 119 114 110 111 103 101 107 101 75 72 83 105 107 118 122 117 117 114 97 106 105 91 80 82 85 72 122 144 137 136 130 128 125 127 127 131 132 141 145 147 153 86 38 18 21 11 6 326 318 313 317 321 352 56 90 150 125 122 122 124 131 146 155 148 140 136 133 132 128 127 126 125 125 125 122 118 119 117 113
141 140 132 129 126 120 113 111 113 114 110 110 110 112 114 95 81 73 101 111 114 110 107 111 111 109 104 102 92 93 83 52 113 138 135 120 124 125 133 134 131 132 140 132 136 147 57 31 30 40 22 1 354 351 345 340 337 333 355 71 80 246 133 128 127 127 136 152 157 150 142 140 142 137 127 127 127 126 122 122 124 124 123 119 119
135 122 121 124 111 114 115 117 124 122 121 124 127 127 123 118 133 122 111 125 142 129 116 109 116 114 118 121 119 110 103 88 86 120 117 112 112 118 119 107 109 114 119 88 62 39 62 43 24 35 34 17 17 351 355 352 347 352 12 71 144 192 144 130 131 133 146 147 153 147 146 147 147 142 132 128 130 125 121 120 123 125 124 120 116
116 118 116 110 104 113 126 131 128 127 130 139 140 133 131 138 132 133 126 161 143 149 119 116 120 126 124 120 114 100 94 84 102 121 122 127 127 130 128 125 116 136 109 114 81 79 66 58 42 42 19 20 335 333 358 352 339 351 14 11 109 111 119 121 124 124 132 140 151 149 149 149 152 150 133 136 136 132 128 125 125 126 128 127 123
113 85 99 109 118 128 133 134 129 131 137 136 122 113 114 98 138 127 145 179 170 143 128 123 124 122 120 133 132 121 121 112 116 129 137 139 139 140 137 128 137 135 95 96 97 103 115 83 37 7 358 21 23 31 360 350 345 16 17 16 62 78 91 123 126 126 131 138 147 147 148 152 162 157 138 144 142 139 137 132 131 134 136 136 130
87 81 110 149 151 140 127 122 123 125 124 112 110 113 129 145 161 146 169 189 163 142 124 132 133 130 143 147 137 134 143 121 119 130 139 133 141 130 116 114 116 114 107 113 115 122 94 91 87 44 26 20 40 44 10 346 17 32 38 45 76 76 53 38 62 73 79 123 158 162 160 160 168 153 150 152 151 146 143 141 138 139 142 137 134
115 150 148 142 133 110 106 109 111 120 126 126 122 132 164 138 164 143 172 181 155 122 124 128 134 138 156 152 145 137 129 119 120 126 127 125 116 107 111 112 115 126 119 115 130 125 75 91 101 103 65 43 40 58 30 38 43 40 45 60 80 85 88 97 113 152 167 170 166 153 154 158 157 156 156 153 152 149 151 151 144 142 143 141 141
123 132 137 129 121 132 127 135 121 125 128 113 120 156 168 142 161 160 175 174 173 117 125 129 134 154 167 154 140 126 125 131 125 131 123 116 105 100 101 113 114 119 113 114 120 108 118 97 89 78 86 76 61 45 67 67 59 52 49 67 80 99 114 133 156 173 177 113 73 133 182 166 164 170 170 156 158 153 157 153 144 145 142 146 148
153 144 164 165 161 145 140 141 129 131 129 126 145 170 146 162 158 163 183 168 159 140 137 138 150 169 167 130 115 124 126 122 126 129 113 113 109 106 107 111 103 95 110 120 102 112 122 122 100 97 83 69 58 48 92 82 66 64 60 78 101 111 124 141 159 166 147 84 127 190 196 166 168 171 171 157 158 156 161 151 150 154 149 153 154
157 166 159 140 139 152 150 148 134 134 131 140 157 163 160 165 161 171 169 149 148 146 148 153 167 158 139 109 101 113 125 125 129 131 126 122 114 113 119 107 117 103 110 116 111 111 120 133 107 76 67 78 65 62 58 78 68 66 75 81 110 124 136 149 161 171 131 128 177 209 195 136 154 170 177 166 153 162 161 154 160 156 159 160 158
179 143 135 137 149 156 155 155 145 139 140 154 165 159 159 161 160 161 143 149 151 160 169 176 163 141 127 111 113 128 127 126 134 134 131 126 122 121 117 125 137 134 130 130 116 111 103 96 45 73 64 57 84 67 67 68 76 74 84 90 116 138 149 146 156 170 140 164 184 161 39 80 113 137 138 161 162 161 158 158 156 164 167 162 163
172 140 135 141 150 156 156 149 147 146 150 156 149 154 162 154 153 149 150 153 159 162 171 168 152 138 129 119 120 130 133 138 139 132 130 128 128 131 132 130 140 138 132 129 130 127 122 111 71 48 64 74 80 67 74 74 75 85 89 104 99 135 147 145 166 161 161 166 130 87 73 75 84 85 80 131 163 150 160 161 168 177 164 169 167
189 144 150 153 154 157 152 150 150 147 154 155 149 152 160 155 154 150 150 149 147 158 168 157 136 126 117 111 120 142 140 146 147 142 140 134 132 134 138 151 143 137 140 146 141 127 139 147 97 85 25 39 65 55 75 91 96 94 112 120 127 145 143 138 94 127 144 91 87 61 54 45 32 35 58 56 142 158 161 165 172 161 158 175 178
170 152 152 154 154 154 153 148 149 150 156 151 146 149 151 151 147 149 142 145 147 161 162 151 135 128 125 121 114 141 145 145 143 141 133 139 137 133 144 138 137 124 130 126 107 126 127 115 126 136 108 80 77 60 62 88 97 108 136 135 143 133 109 107 102 106 100 107 89 72 71 70 65 99 82 66 78 163 170 166 171 174 167 175 185
162 159 156 156 153 152 151 151 154 153 148 142 139 142 142 140 145 146 150 150 152 152 141 124 130 136 127 126 139 147 147 149 154 149 128 132 129 133 143 134 132 125 119 118 92 146 144 120 62 69 113 118 83 86 74 89 99 113 143 130 100 81 85 62 48 53 76 87 95 90 91 70 74 99 96 102 95 93 161 167 171 186 181 185 195
165 150 150 151 150 151 152 153 151 149 147 146 145 143 138 131 132 143 149 152 155 143 136 143 156 152 135 149 163 154 152 154 157 136 127 138 137 137 139 137 136 128 117 106 100 116 110 111 84 40 71 95 102 100 96 94 108 107 45 53 34 33 31 39 42 73 67 82 79 84 96 93 103 91 123 123 91 77 69 121 160 184 188 171 55
163 153 151 142 146 148 147 148 149 146 143 139 133 123 119 111 105 124 137 139 126 118 131 137 142 134 147 167 161 156 149 143 138 135 133 132 128 131 134 144 136 132 120 100 95 96 90 78 104 70 56 91 116 116 121 126 122 135 53 37 36 36 39 42 50 53 57 92 124 110 89 91 85 72 88 94 72 70 70 48 46 35 42 57 39
155 153 148 147 147 149 140 140 148 147 140 136 131 128 130 136 136 120 107 137 90 108 129 150 149 145 164 167 160 140 137 129 129 137 137 139 135 135 133 130 127 119 111 111 111 120 121 93 91 107 82 61 74 111 115 116 95 67 66 50 51 37 51 54 54 54 53 62 72 81 117 108 77 71 71 72 75 63 59 50 38 25 29 36 44
160 157 151 154 155 151 145 149 159 156 152 150 151 149 146 134 123 152 154 146 145 153 147 169 157 160 158 157 135 130 130 125 132 131 125 115 104 106 109 104 116 119 127 156 167 155 145 132 119 100 115 91 61 105 119 126 113 54 52 58 46 31 45 54 54 51 55 47 54 88 81 89 66 78 60 54 69 62 54 52 49 40 33 32 22
168 161 159 156 156 151 152 154 161 163 163 161 154 152 158 162 156 162 143 153 163 166 153 174 155 146 145 147 145 134 123 120 114 110 112 115 120 125 134 145 149 159 165 157 159 156 133 123 125 67 32 131 139 128 172 123 8 100 101 43 34 20 50 51 50 46 63 65 74 78 75 91 93 81 92 70 63 72 69 52 54 48 37 41 42
160 163 155 146 149 155 151 156 163 162 161 156 149 154 161 160 149 145 148 149 197 177 140 153 150 147 155 142 121 106 107 106 117 126 129 137 145 146 154 151 165 166 119 127 139 143 155 151 145 138 114 34 104 57 84 68 154 106 90 94 55 58 357 27 30 40 55 78 80 92 98 99 92 88 89 83 75 69 63 66 55 55 50 40 38
155 154 147 144 144 153 155 157 160 158 157 166 167 161 158 145 117 126 134 126 158 141 109 132 133 126 96 85 84 105 111 122 131 132 122 135 148 158 148 161 178 167 156 155 164 178 172 158 130 138 137 118 71 34 357 182 142 130 91 123 159 117 82 36 45 4 18 55 69 91 102 105 85 65 68 74 58 80 43 78 55 78 72 56 34
159 149 144 140 147 153 156 159 158 164 166 169 171 145 124 108 105 95 91 88 73 98 103 82 91 90 89 97 115 111 117 119 115 125 136 146 150 145 160 176 167 170 131 151 172 193 186 174 156 148 153 144 155 127 109 287 173 243 139 116 73 53 194 171 127 25 4 31 26 85 116 107 106 84 58 75 67 66 71 77 95 64 79 93 72
151 134 122 131 142 143 151 155 155 165 165 167 162 145 144 139 143 144 135 130 125 129 137 146 134 129 144 98 81 99 106 103 112 132 146 149 139 149 144 129 115 113 122 108 109 98 97 143 180 163 155 160 142 124 115 1 145 206 204 176 163 165 153 182 119 122 22 50 46 45 58 78 92 91 96 101 79 71 68 92 93 102 99 85 92
136 124 125 124 125 129 142 157 162 162 144 158 169 143 139 148 155 149 141 140 135 141 132 135 128 106 107 109 115 109 117 124 133 115 104 115 137 135 100 92 109 121 120 101 92 106 121 119 127 129 146 143 128 125 150 169 62 24 336 298 260 133 141 136 140 131 120 3 18 34 42 61 89 107 102 86 85 81 74 94 103 106 106 97 90
125 133 129 112 119 117 122 123 110 118 133 133 154 152 144 147 144 140 140 137 139 149 148 121 98 107 101 114 118 117 114 121 103 88 93 95 117 107 100 101 105 116 108 104 114 120 97 71 73 91 108 124 143 142 162 163 145 199 336 13 52 99 102 94 123 148 130 130 92 16 51 44 52 63 74 73 63 76 84 84 88 79 71 68 68
125 149 144 123 119 118 114 109 125 139 133 132 139 148 142 146 142 137 128 132 133 139 117 105 106 106 104 106 112 110 90 74 93 103 87 89 104 112 117 111 105 103 103 98 79 67 71 77 68 67 83 76 95 128 132 177 143 164 116 19 58 71 69 77 109 94 136 131 97 168 103 47 66 64 68 68 59 63 81 82 79 73 68 60 48
119 127 128 125 126 129 135 143 157 159 160 143 147 146 143 141 136 139 134 135 129 120 118 119 119 115 111 109 107 107 102 86 75 84 85 81 104 116 113 114 116 107 88 91 88 76 74 78 91 104 102 88 68 99 126 150 154 154 164 157 105 90 80 74 73 97 56 30 146 168 157 129 109 40 73 70 71 66 69 71 74 66 61 55 42
123 132 141 143 145 145 149 159 170 169 167 164 159 163 152 147 144 148 146 145 146 142 131 124 121 114 118 121 118 119 111 108 91 66 74 78 88 98 104 105 97 97 93 85 88 99 98 99 98 88 86 101 103 99 92 93 109 101 96 134 154 161 164 158 158 153 140 124 103 103 92 97 118 112 35 86 86 72 68 69 77 70 65 60 51